Погода в Борисково

Россия / Калужская область     55°09′05″N   36°56′41″E
темп.,
°C
ветер,
м/с
пор.,
м/с
влажн.,
%
обл.,
%
осадки,
мм/ч
давл.,
гПа
погр.,
м
17 октября, вс
вс1700:00+5юз310885 0.0 1014330
03:00+5юз411925 0.0 1014385
06:00+4юз4129183 0.0 1014437
09:00+5юз4128540 0.0 1013550
12:00+8зюз51072100 0.0 1013888
15:00+8зюз5870100 0.0 10131161
18:00+7зюз3979100 0.1 1013765
21:00+6юз41080100 0.1 1013605
18 октября, пн
пн1800:00+6зюз31076100 0.1 1012545
03:00+6зюз4983100 0.3 1011580
06:00+5юз41088100 0.1 1010489
09:00+6зюз51184100 0.1 1010871
12:00+6зсз487987 1.0 10101081
15:00+8з49585 1.1 10101573
18:00+4з310695 0.0 1012360
21:00+3з310795 0.0 1012409
19 октября, вт
вт1900:00+2з310915 0.0 1013356
03:00+1зсз399658 0.0 1014386
06:00+2зсз3889100 0.0 1015709
09:00+2зсз388199 0.1 1016723
12:00+4зсз467093 0.1 10171014
15:00+4зсз3679100 0.3 1016793
18:00+3зсз378098 0.1 1018499
21:00+2сз51092100 0.3 1018840
20 октября, ср
ср2000:00+1сз487892 0.1 1020853
03:00−1сз378319 0.1 1021638
06:00−3сз389258 0.0 1023351
09:00−1сз2577100 0.0 1023389
12:00+2з235762 0.0 1023772
15:00+3юз3448100 0.0 1022860
18:000ю3865100 0.0 1020247
21:00+2ю41169100 0.0 1018623
21 октября, чт
чт2100:00+2ю51387100 0.5 1014674
03:00+3ююз61592100 2.0 1010770
06:00+4ююз51595100 1.4 1008620
09:00+7юз61691100 1.4 1006678
12:00+10юз61783100 0.0 1004729
15:00+12юз61676100 0.0 1002916
18:00+11юз61688100 0.8 1002760
21:00+10юз71779100 1.8 1001785